GOES 15

Last updated on Sun Oct 19 2025 00:02:33 GMT+0000 (Coordinated Universal Time)

1 36411U 10008A 25291.13778206 .00000030 00000+0 00000+0 0 9998 2 36411 0.6686 85.6280 0005909 149.9066 262.3997 1.00274660 57219
UTC large
Height (km)
Speed (km/s)
/
Latitude / Longitude
Inclination (degrees)
Orbital Period (minutes)
Azimuth
Elevation
Range (km)
Doppler Factor

Next 0 passes for location: London (51.5072 / 0.1276)

Sorry there are no passes over London.